EW3649 Weather Reports


time (UTC)temp
C
wind
direction
speed
KPH
gust
KPH
rain 1hr
cm
rain 24hr
cm
rain mn
cm
humidity
%
barometer
mb
20260831194005 22 256 0.0 6.4 0.00 0.00 0.00 59 1011.0
20260831193504 22 255 0.0 6.4 0.00 0.00 0.00 58 1011.1
20260831193005 22 254 0.0 8.0 0.00 0.00 0.00 58 1011.1
20260831192505 22 252 0.0 8.0 0.00 0.00 0.00 58 1011.1
20260831192004 22 251 0.0 1.6 0.00 0.00 0.00 60 1011.3
20260831191504 22 0 0.0 0.0 0.00 0.00 0.00 60 1011.5
20260831191005 21 251 0.0 1.6 0.00 0.00 0.00 60 1011.5
20260831190504 21 251 0.0 1.6 0.00 0.00 0.00 59 1011.6
20260831190004 21 251 0.0 1.6 0.00 0.00 0.00 60 1011.6
20260831185005 21 251 0.0 6.4 0.00 0.00 0.00 62 1011.8
20260831184504 21 251 0.0 3.2 0.00 0.00 0.00 61 1011.9
20260831184005 21 251 0.0 3.2 0.00 0.00 0.00 61 1011.8
20260831183504 21 0 0.0 0.0 0.00 0.00 0.00 61 1011.8
20260831183005 21 250 0.0 1.6 0.00 0.00 0.00 61 1011.9
20260831182504 21 250 0.0 1.6 0.00 0.00 0.00 62 1012.0
20260831182005 21 0 0.0 0.0 0.00 0.00 0.00 64 1012.1
20260831181005 20 0 0.0 0.0 0.00 0.00 0.00 65 1012.2
20260831180504 20 0 0.0 0.0 0.00 0.00 0.00 65 1012.3
20260831180005 20 0 0.0 0.0 0.00 0.00 0.00 65 1012.3
20260831175505 20 0 0.0 0.0 0.00 0.00 0.00 66 1012.3
20260831175004 20 0 0.0 0.0 0.00 0.00 0.00 67 1012.4
20260831174504 19 0 0.0 0.0 0.00 0.00 0.00 67 1012.4
20260831174006 19 0 0.0 0.0 0.00 0.00 0.00 67 1012.4
20260831173505 19 0 0.0 0.0 0.00 0.00 0.00 67 1012.5
20260831173005 19 0 0.0 0.0 0.00 0.00 0.00 67 1012.5
20260831172505 19 0 0.0 0.0 0.00 0.00 0.00 67 1012.6
20260831170505 18 0 0.0 0.0 0.00 0.00 0.00 69 1012.8
20260831170006 18 0 0.0 0.0 0.00 0.00 0.00 69 1012.8
20260831165505 18 0 0.0 0.0 0.00 0.00 0.00 70 1012.8
20260831165005 18 0 0.0 0.0 0.00 0.00 0.00 70 1012.9
20260831164504 18 0 0.0 0.0 0.00 0.00 0.00 70 1013.0
20260831164005 17 0 0.0 0.0 0.00 0.00 0.00 71 1013.0
20260831163504 17 0 0.0 0.0 0.00 0.00 0.00 73 1013.1
20260831163005 17 0 0.0 0.0 0.00 0.00 0.00 72 1013.1
20260831161505 16 0 0.0 0.0 0.00 0.00 0.00 76 1013.3
20260831161005 16 0 0.0 0.0 0.00 0.00 0.00 77 1013.4
20260831155504 16 0 0.0 0.0 0.00 0.00 0.00 77 1013.4
20260831155008 15 0 0.0 0.0 0.00 0.00 0.00 80 1013.5
20260831154505 15 0 0.0 0.0 0.00 0.00 0.00 80 1013.5
20260831153505 14 0 0.0 0.0 0.00 0.00 0.00 84 1013.6
20260831153004 13 0 0.0 0.0 0.00 0.00 0.00 86 1013.6
20260831151504 12 0 0.0 0.0 0.00 0.00 0.00 91 1013.7
20260831151005 12 0 0.0 0.0 0.00 0.00 0.00 91 1013.8
20260831150504 12 0 0.0 0.0 0.00 0.00 0.00 92 1013.7
20260831150005 12 0 0.0 0.0 0.00 0.00 0.00 92 1013.7
20260831145505 12 0 0.0 0.0 0.00 0.00 0.00 93 1013.7
20260831145006 12 0 0.0 0.0 0.00 0.00 0.00 93 1013.6
20260831144504 11 0 0.0 0.0 0.00 0.00 0.00 93 1013.5
20260831144005 11 0 0.0 0.0 0.00 0.00 0.00 93 1013.6
20260831143504 11 0 0.0 0.0 0.00 0.00 0.00 93 1013.7
20260831142504 10 0 0.0 0.0 0.00 0.00 0.00 93 1013.6
20260831142005 10 0 0.0 0.0 0.00 0.00 0.00 93 1013.7
20260831141505 10 0 0.0 0.0 0.00 0.00 0.00 92 1013.6
20260831141004 10 0 0.0 0.0 0.00 0.00 0.00 92 1013.8
20260831140504 10 0 0.0 0.0 0.00 0.00 0.00 91 1013.7
20260831140005 10 0 0.0 0.0 0.00 0.00 0.00 91 1013.7
20260831134504 10 0 0.0 0.0 0.00 0.00 0.00 91 1013.6
20260831134006 10 0 0.0 0.0 0.00 0.00 0.00 91 1013.5
20260831133504 10 0 0.0 0.0 0.00 0.00 0.00 92 1013.5
20260831133004 10 0 0.0 0.0 0.00 0.00 0.00 91 1013.5
20260831132504 10 0 0.0 0.0 0.00 0.00 0.00 92 1013.5
20260831131505 10 0 0.0 0.0 0.00 0.00 0.00 92 1013.6
20260831131006 10 0 0.0 0.0 0.00 0.00 0.00 92 1013.6
20260831130005 10 0 0.0 0.0 0.00 0.00 0.00 91 1013.7
20260831125504 10 0 0.0 0.0 0.00 0.00 0.00 90 1013.7
20260831125005 10 0 0.0 0.0 0.00 0.00 0.00 90 1013.7
20260831124505 10 0 0.0 0.0 0.00 0.00 0.00 90 1013.8
20260831124005 10 0 0.0 0.0 0.00 0.00 0.00 91 1013.8
20260831123504 10 0 0.0 0.0 0.00 0.00 0.00 91 1013.7
20260831122503 10 0 0.0 0.0 0.00 0.00 0.00 91 1013.8
20260831122005 10 0 0.0 0.0 0.00 0.00 0.00 91 1013.9
20260831121504 10 0 0.0 0.0 0.00 0.00 0.00 91 1013.9
20260831121005 10 0 0.0 0.0 0.00 0.00 0.00 91 1013.9
20260831120004 10 0 0.0 0.0 0.00 0.00 0.00 90 1014.0
20260831115006 10 0 0.0 0.0 0.00 0.00 0.00 89 1014.0
20260831114504 10 0 0.0 0.0 0.00 0.00 0.00 89 1014.1
20260831114005 11 0 0.0 0.0 0.00 0.00 0.00 89 1014.1
20260831113504 11 0 0.0 0.0 0.00 0.00 0.00 90 1014.2
20260831113005 11 0 0.0 0.0 0.00 0.00 0.00 90 1014.2
20260831112504 11 0 0.0 0.0 0.00 0.00 0.00 90 1014.2
20260831112005 11 0 0.0 0.0 0.00 0.00 0.00 90 1014.3
20260831111504 11 0 0.0 0.0 0.00 0.00 0.00 90 1014.3
20260831111005 11 0 0.0 0.0 0.00 0.00 0.00 89 1014.4
20260831110504 11 0 0.0 0.0 0.00 0.00 0.00 89 1014.4
20260831110004 11 0 0.0 0.0 0.00 0.00 0.00 89 1014.4
20260831105503 11 0 0.0 0.0 0.00 0.00 0.00 89 1014.5
20260831105004 11 0 0.0 0.0 0.00 0.00 0.00 89 1014.5
20260831104005 11 0 0.0 0.0 0.00 0.00 0.00 89 1014.6
20260831103504 11 0 0.0 0.0 0.00 0.00 0.00 89 1014.6
20260831103005 11 0 0.0 0.0 0.00 0.00 0.00 89 1014.6
20260831102504 11 0 0.0 0.0 0.00 0.00 0.00 89 1014.7
20260831102004 11 0 0.0 0.0 0.00 0.00 0.00 89 1014.7
20260831101503 11 0 0.0 0.0 0.00 0.00 0.00 89 1014.7
20260831101004 11 0 0.0 0.0 0.00 0.00 0.00 88 1014.7
20260831100504 11 0 0.0 0.0 0.00 0.00 0.00 88 1014.8
20260831100004 11 0 0.0 0.0 0.00 0.00 0.00 88 1014.8
20260831095503 11 0 0.0 0.0 0.00 0.00 0.00 88 1014.9
20260831095004 11 0 0.0 0.0 0.00 0.00 0.00 88 1014.9
20260831094503 11 0 0.0 0.0 0.00 0.00 0.00 87 1014.9
20260831094005 11 0 0.0 0.0 0.00 0.00 0.00 87 1015.0
20260831093503 11 0 0.0 0.0 0.00 0.00 0.00 87 1015.1
20260831093005 11 0 0.0 0.0 0.00 0.00 0.00 87 1015.1
20260831092504 11 0 0.0 0.0 0.00 0.00 0.00 87 1015.2
20260831092005 11 0 0.0 0.0 0.00 0.00 0.00 87 1015.3
20260831091504 11 0 0.0 0.0 0.00 0.00 0.00 87 1015.3
20260831091004 11 0 0.0 0.0 0.00 0.00 0.00 87 1015.3
20260831090004 11 0 0.0 0.0 0.00 0.00 0.00 86 1015.4
20260831085504 11 0 0.0 0.0 0.00 0.00 0.00 86 1015.5
20260831085004 11 0 0.0 0.0 0.00 0.00 0.00 86 1015.5
20260831084503 12 0 0.0 0.0 0.00 0.00 0.00 86 1015.5
20260831084004 12 0 0.0 0.0 0.00 0.00 0.00 86 1015.4
20260831083004 12 0 0.0 0.0 0.00 0.00 0.00 85 1015.6
20260831082504 12 0 0.0 0.0 0.00 0.00 0.00 85 1015.5
20260831082004 12 0 0.0 0.0 0.00 0.00 0.00 85 1015.5
20260831081503 12 0 0.0 0.0 0.00 0.00 0.00 85 1015.6
20260831081003 12 0 0.0 0.0 0.00 0.00 0.00 85 1015.6
20260831080504 12 0 0.0 0.0 0.00 0.00 0.00 84 1015.6
20260831080004 12 0 0.0 0.0 0.00 0.00 0.00 84 1015.7
20260831075503 12 0 0.0 0.0 0.00 0.00 0.00 84 1015.8
20260831075004 12 0 0.0 0.0 0.00 0.00 0.00 83 1015.8
20260831074004 12 0 0.0 0.0 0.00 0.00 0.00 83 1015.9
20260831073503 12 0 0.0 0.0 0.00 0.00 0.00 82 1015.9
20260831073005 12 0 0.0 0.0 0.00 0.00 0.00 81 1015.9
20260831072503 13 0 0.0 0.0 0.00 0.00 0.00 81 1015.9
20260831071503 13 0 0.0 0.0 0.00 0.00 0.00 81 1016.0
20260831071005 13 0 0.0 0.0 0.00 0.00 0.00 80 1016.1
20260831070503 13 0 0.0 0.0 0.00 0.00 0.00 80 1016.1
20260831065504 13 0 0.0 0.0 0.00 0.00 0.00 79 1016.2
20260831065005 13 0 0.0 0.0 0.00 0.00 0.00 79 1016.2
20260831064504 13 0 0.0 0.0 0.00 0.00 0.00 79 1016.2
20260831064005 13 0 0.0 0.0 0.00 0.00 0.00 78 1016.4
20260831063506 14 0 0.0 0.0 0.00 0.00 0.00 78 1016.4
20260831063006 14 0 0.0 0.0 0.00 0.00 0.00 76 1016.5
20260831062506 14 0 0.0 0.0 0.00 0.00 0.00 76 1016.6
20260831062005 14 0 0.0 0.0 0.00 0.00 0.00 76 1016.6
20260831061007 15 0 0.0 0.0 0.00 0.00 0.00 75 1016.6
20260831060505 15 0 0.0 0.0 0.00 0.00 0.00 74 1016.6
20260831055505 15 0 0.0 0.0 0.00 0.00 0.00 74 1016.6
20260831055007 15 0 0.0 0.0 0.00 0.00 0.00 73 1016.7
20260831054506 15 0 0.0 0.0 0.00 0.00 0.00 73 1016.8
20260831054006 15 0 0.0 0.0 0.00 0.00 0.00 73 1016.8
20260831053505 15 0 0.0 0.0 0.00 0.00 0.00 73 1017.0
20260831053006 15 0 0.0 0.0 0.00 0.00 0.00 73 1017.0
20260831052505 15 0 0.0 0.0 0.00 0.00 0.00 72 1017.1
20260831052006 15 0 0.0 0.0 0.00 0.00 0.00 72 1017.1
20260831051006 16 0 0.0 0.0 0.00 0.00 0.00 71 1017.1
20260831045505 16 0 0.0 0.0 0.00 0.00 0.00 71 1017.2
20260831045006 16 0 0.0 0.0 0.00 0.00 0.00 71 1017.1
20260831044505 16 0 0.0 0.0 0.00 0.00 0.00 70 1017.2
20260831044007 16 0 0.0 0.0 0.00 0.00 0.00 70 1017.2
20260831043007 16 0 0.0 0.0 0.00 0.00 0.00 69 1017.3
20260831042505 17 0 0.0 0.0 0.00 0.00 0.00 68 1017.2
20260831042006 17 0 0.0 0.0 0.00 0.00 0.00 68 1017.2
20260831041006 17 0 0.0 0.0 0.00 0.00 0.00 67 1017.3
20260831040505 17 0 0.0 0.0 0.00 0.00 0.00 66 1017.3
20260831035504 17 0 0.0 0.0 0.00 0.00 0.00 66 1017.2
20260831035005 17 0 0.0 0.0 0.00 0.00 0.00 65 1017.2
20260831034505 17 0 0.0 0.0 0.00 0.00 0.00 65 1017.2
20260831034006 17 0 0.0 0.0 0.00 0.00 0.00 64 1017.2
20260831033505 18 0 0.0 0.0 0.00 0.00 0.00 64 1017.2
20260831033006 18 0 0.0 0.0 0.00 0.00 0.00 63 1017.1
20260831032505 18 0 0.0 0.0 0.00 0.00 0.00 63 1017.1
20260831032006 18 0 0.0 0.0 0.00 0.00 0.00 62 1017.1
20260831031505 18 0 0.0 0.0 0.00 0.00 0.00 62 1017.1
20260831031006 18 0 0.0 0.0 0.00 0.00 0.00 62 1017.1
20260831030505 18 0 0.0 0.0 0.00 0.00 0.00 61 1017.1
20260831030006 18 0 0.0 0.0 0.00 0.00 0.00 61 1017.0
20260831025505 18 0 0.0 0.0 0.00 0.00 0.00 61 1017.0
20260831025006 19 0 0.0 0.0 0.00 0.00 0.00 60 1017.1
20260831023505 19 0 0.0 0.0 0.00 0.00 0.00 58 1017.1
20260831023005 19 0 0.0 0.0 0.00 0.00 0.00 57 1017.2
20260831022505 20 0 0.0 0.0 0.00 0.00 0.00 56 1017.3
20260831021505 20 0 0.0 0.0 0.00 0.00 0.00 55 1017.3
20260831021006 20 0 0.0 0.0 0.00 0.00 0.00 54 1017.3
20260831020006 20 0 0.0 0.0 0.00 0.00 0.00 54 1017.4
20260831015505 20 0 0.0 0.0 0.00 0.00 0.00 53 1017.4
20260831014505 20 0 0.0 0.0 0.00 0.00 0.00 54 1017.4
20260831014006 20 0 0.0 0.0 0.00 0.00 0.00 54 1017.5
20260831013504 20 0 0.0 0.0 0.00 0.00 0.00 54 1017.5
20260831013006 20 0 0.0 0.0 0.00 0.00 0.00 54 1017.5
20260831012006 20 0 0.0 0.0 0.00 0.00 0.00 54 1017.5
20260831011506 20 0 0.0 0.0 0.00 0.00 0.00 56 1017.6
20260831011006 21 0 0.0 0.0 0.00 0.00 0.00 55 1017.6
20260831010505 21 0 0.0 0.0 0.00 0.00 0.00 55 1017.6
20260831010006 21 0 0.0 0.0 0.00 0.00 0.00 55 1017.7
20260831005006 21 0 0.0 0.0 0.00 0.00 0.00 56 1017.7
20260831004505 21 0 0.0 0.0 0.00 0.00 0.00 56 1017.7
20260831004005 21 0 0.0 0.0 0.00 0.00 0.00 54 1017.7
20260831003505 21 0 0.0 0.0 0.00 0.00 0.00 55 1017.7
20260831003005 21 0 0.0 0.0 0.00 0.00 0.00 54 1017.8
20260831002505 21 0 0.0 0.0 0.00 0.00 0.00 53 1017.9
20260831002005 21 0 0.0 0.0 0.00 0.00 0.00 52 1017.9
20260831001505 22 0 0.0 0.0 0.00 0.00 0.00 51 1017.9
20260831001006 22 0 0.0 0.0 0.00 0.00 0.00 50 1018.0
20260831000504 22 0 0.0 0.0 0.00 0.00 0.00 52 1018.0
20260831000005 22 0 0.0 0.0 0.00 0.00 0.00 52 1018.1
20260830235505 22 0 0.0 0.0 0.00 0.00 0.00 51 1018.1
20260830235006 22 0 0.0 0.0 0.00 0.00 0.00 52 1018.2
20260830234505 22 0 0.0 0.0 0.00 0.00 0.00 50 1018.2
20260830233505 22 0 0.0 0.0 0.00 0.00 0.00 55 1018.2
20260830232005 22 0 0.0 0.0 0.00 0.00 0.00 53 1018.3
20260830231504 22 0 0.0 0.0 0.00 0.00 0.00 56 1018.4
20260830231006 22 0 0.0 0.0 0.00 0.00 0.00 55 1018.3
20260830230505 22 0 0.0 0.0 0.00 0.00 0.00 54 1018.4
20260830225505 22 0 0.0 0.0 0.00 0.00 0.00 55 1018.5
20260830225006 22 0 0.0 0.0 0.00 0.00 0.00 53 1018.6
20260830224504 22 0 0.0 0.0 0.00 0.00 0.00 55 1018.6
20260830223005 22 0 0.0 0.0 0.00 0.00 0.00 55 1018.7
20260830222505 22 0 0.0 0.0 0.00 0.00 0.00 55 1018.8
20260830221505 21 0 0.0 0.0 0.00 0.00 0.00 57 1018.8
20260830221006 20 0 0.0 0.0 0.00 0.00 0.00 57 1018.8
20260830215006 21 0 0.0 0.0 0.00 0.00 0.00 54 1019.0
20260830214504 22 0 0.0 0.0 0.00 0.00 0.00 53 1019.1
20260830214006 22 0 0.0 0.0 0.00 0.00 0.00 53 1019.2
20260830213505 22 0 0.0 0.0 0.00 0.00 0.00 53 1019.2
20260830213006 22 0 0.0 0.0 0.00 0.00 0.00 53 1019.3
20260830212006 22 0 0.0 0.0 0.00 0.00 0.00 55 1019.4
20260830211504 22 0 0.0 0.0 0.00 0.00 0.00 52 1019.4
20260830211005 22 0 0.0 0.0 0.00 0.00 0.00 55 1019.4
20260830210504 22 0 0.0 0.0 0.00 0.00 0.00 56 1019.5
20260830210005 21 0 0.0 0.0 0.00 0.00 0.00 55 1019.5
20260830205505 21 0 0.0 0.0 0.00 0.00 0.00 57 1019.6
20260830205005 21 0 0.0 0.0 0.00 0.00 0.00 60 1019.5
20260830204006 20 0 0.0 0.0 0.00 0.00 0.00 63 1019.7
20260830203505 20 0 0.0 0.0 0.00 0.00 0.00 63 1019.7
20260830203006 19 0 0.0 0.0 0.00 0.00 0.00 62 1019.8
20260830202504 19 0 0.0 0.0 0.00 0.00 0.00 61 1019.7
20260830202005 19 0 0.0 0.0 0.00 0.00 0.00 62 1019.7
20260830201505 18 247 0.0 1.6 0.00 0.00 0.00 65 1019.8
20260830201005 18 247 0.0 1.6 0.00 0.00 0.00 64 1019.8
20260830200504 18 0 0.0 0.0 0.00 0.00 0.00 65 1019.8
20260830200005 18 0 0.0 0.0 0.00 0.00 0.00 63 1020.0
20260830195005 18 247 0.0 11.3 0.00 0.00 0.00 62 1020.0
20260830194504 19 247 0.0 6.4 0.00 0.00 0.00 63 1019.9